Weather History for Billund, Denmark

Change the Weather History Date:

Friday, January 4, 2013

  Actual Average Record
Temperature  
Mean Temperature 44 °F -  
Max Temperature 46 °F 37 °F 48 °F (2007)
Min Temperature 41 °F 29 °F -2 °F (2003)
Degree Days  
Heating Degree Days 22    
Moisture  
Dew Point 43 °F    
Average Humidity 92    
Maximum Humidity 100    
Minimum Humidity 87    
Precipitation  
Precipitation 0.00 in - - ()
Sea Level Pressure  
Sea Level Pressure 30.21 in    
Wind  
Wind Speed 15 mph ()    
Max Wind Speed 23 mph    
Max Gust Speed 32 mph    
Visibility 4.4 miles    
Events Rain    
Averages and records for this station are not official NWS values.
T = Trace of Precipitation, MM = Missing Value Source: Averaged Metar Reports

Daily Weather History Graph

Daily Weather History Graph

Search for Another Location

Airport:

Trip Planner

Search our weather history database for the weather conditions in past years. The results will help you decide how hot, cold, wet, or windy it might be!

Date:

Astronomy

Jan. 04, 2013 Rise Set
Actual Time 8:51 AM CET 4:05 PM CET
Civil Twilight 8:05 AM CET 4:51 PM CET
Nautical Twilight 7:17 AM CET 5:39 PM CET
Astronomical Twilight 6:32 AM CET 6:24 PM CET
Moon No Moon Rise 11:04 AM CET (1/4)
Length of Visible Light 8h 45m
Length of Day
7h 13m
Waning Gibbous, 58% of the Moon is Illuminated
Jan 4
Waning Gibbous
Jan 5
Last Quarter
Jan 11
New
Jan 19
First Quarter
Jan 27
Full

Hourly Weather History & Observations

Time (CET) Temp. Windchill Dew Point Humidity Pressure Visibility Wind Dir Wind Speed Gust Speed Precip Events Conditions
12:20 AM 42.8 °F 34.8 °F 39.2 °F 87% 30.24 in 4.3 mi WNW 17.3 mph - N/A   Mostly Cloudy
12:50 AM 42.8 °F 34.3 °F 41.0 °F 93% 30.24 in 4.3 mi West 19.6 mph - N/A   Mostly Cloudy
1:20 AM 42.8 °F 34.5 °F 41.0 °F 93% 30.24 in 5.0 mi WNW 18.4 mph - N/A   Mostly Cloudy
1:50 AM 42.8 °F 35.4 °F 39.2 °F 87% 30.24 in 5.0 mi WNW 15.0 mph - N/A   Mostly Cloudy
2:20 AM 42.8 °F 34.8 °F 41.0 °F 93% 30.24 in 5.6 mi WNW 17.3 mph - N/A   Scattered Clouds
2:50 AM 42.8 °F 35.1 °F 39.2 °F 87% 30.24 in 6.2 mi West 16.1 mph - N/A   Mostly Cloudy
3:20 AM 42.8 °F 36.6 °F 39.2 °F 87% 30.24 in 6.2 mi West 11.5 mph - N/A   Mostly Cloudy
3:50 AM 42.8 °F 37.5 °F 39.2 °F 87% 30.27 in 6.2 mi West 9.2 mph - N/A   Mostly Cloudy
4:20 AM 41.0 °F 34.7 °F 39.2 °F 93% 30.27 in 6.2 mi West 10.4 mph - N/A   Mostly Cloudy
4:50 AM 41.0 °F 34.7 °F 39.2 °F 93% 30.27 in 6.2 mi WSW 10.4 mph - N/A   Mostly Cloudy
5:20 AM 41.0 °F 35.2 °F 39.2 °F 93% 30.24 in 6.2 mi WSW 9.2 mph - N/A   Mostly Cloudy
5:50 AM 42.8 °F 37.5 °F 39.2 °F 87% 30.24 in 6.2 mi West 9.2 mph - N/A   Mostly Cloudy
6:20 AM 42.8 °F 38.6 °F 39.2 °F 87% 30.24 in - WSW 6.9 mph - N/A   Clear
6:50 AM 42.8 °F 38.6 °F 39.2 °F 87% 30.24 in - WSW 6.9 mph - N/A   Clear
7:20 AM 42.8 °F 37.0 °F 41.0 °F 93% 30.24 in 5.0 mi West 10.4 mph - N/A   Mostly Cloudy
7:50 AM 44.6 °F 38.8 °F 42.8 °F 93% 30.24 in 1.7 mi WSW 11.5 mph - N/A   Light Drizzle
8:20 AM 44.6 °F 39.7 °F 42.8 °F 93% 30.21 in 1.7 mi SW 9.2 mph - N/A Rain Light Drizzle
8:50 AM 44.6 °F 38.4 °F 42.8 °F 93% 30.21 in 2.2 mi WSW 12.7 mph - N/A Rain Light Drizzle
9:20 AM 46.4 °F 39.5 °F 44.6 °F 93% 30.18 in 3.1 mi West 17.3 mph - N/A Rain Light Drizzle
9:50 AM 46.4 °F 39.2 °F 44.6 °F 93% 30.18 in 2.5 mi West 18.4 mph - N/A Rain Rain
10:20 AM 46.4 °F 39.0 °F 44.6 °F 93% 30.21 in 1.7 mi West 19.6 mph - N/A Rain Light Drizzle
10:50 AM 46.4 °F 39.8 °F 44.6 °F 93% 30.21 in - West 16.1 mph - N/A   Light Drizzle
11:20 AM 46.4 °F 39.5 °F 44.6 °F 93% 30.21 in 1.9 mi West 17.3 mph - N/A   Light Drizzle
12:20 PM 46.4 °F 38.5 °F 44.6 °F 93% 30.18 in 3.7 mi WNW 21.9 mph - N/A   Mostly Cloudy
12:50 PM 46.4 °F 38.3 °F 44.6 °F 93% 30.18 in 2.8 mi WNW 23.0 mph - N/A Rain Rain
1:20 PM 46.4 °F 38.7 °F 46.4 °F 100% 30.18 in 2.5 mi WNW 20.7 mph - N/A Rain Rain
1:50 PM 46.4 °F 38.7 °F 46.4 °F 100% 30.18 in - WNW 20.7 mph 32.2 mph N/A Rain Rain
2:20 PM 46.4 °F 38.7 °F 44.6 °F 93% 30.18 in 2.8 mi WNW 20.7 mph - N/A Rain Rain
2:50 PM 46.4 °F 39.0 °F 44.6 °F 93% 30.21 in - WNW 19.6 mph - N/A Rain Rain
3:20 PM 46.4 °F 39.0 °F 44.6 °F 93% 30.21 in 2.8 mi WNW 19.6 mph - N/A Rain Light Drizzle
3:50 PM 46.4 °F 38.7 °F 44.6 °F 93% 30.18 in 3.1 mi WNW 20.7 mph - N/A Rain Rain
4:20 PM 46.4 °F 38.5 °F 44.6 °F 93% 30.18 in - WNW 21.9 mph - N/A Rain Rain
4:50 PM 46.4 °F 39.0 °F 44.6 °F 93% 30.18 in - WNW 19.6 mph - N/A Rain Rain
5:20 PM 46.4 °F 39.0 °F 44.6 °F 93% 30.18 in - WNW 19.6 mph - N/A Rain Rain
5:50 PM 46.4 °F 38.5 °F 44.6 °F 93% 30.18 in 2.8 mi WNW 21.9 mph - N/A Rain Light Drizzle
6:20 PM 46.4 °F 39.0 °F 44.6 °F 93% 30.18 in 3.1 mi WNW 19.6 mph - N/A Rain Light Drizzle
6:50 PM 46.4 °F 39.0 °F 44.6 °F 93% 30.18 in 4.3 mi WNW 19.6 mph - N/A Rain Light Rain
7:20 PM 46.4 °F 38.7 °F 44.6 °F 93% 30.18 in 4.3 mi WNW 20.7 mph - N/A Rain Rain
7:50 PM 46.4 °F 39.8 °F 44.6 °F 93% 30.21 in 5.0 mi WNW 16.1 mph - N/A   Mostly Cloudy
8:20 PM 46.4 °F 39.8 °F 44.6 °F 93% 30.21 in 5.6 mi WNW 16.1 mph - N/A   Mostly Cloudy
8:50 PM 46.4 °F 40.1 °F 44.6 °F 93% 30.21 in 6.2 mi WNW 15.0 mph - N/A   Mostly Cloudy
9:20 PM 46.4 °F 40.1 °F 44.6 °F 93% 30.21 in 6.2 mi WNW 15.0 mph - N/A   Mostly Cloudy
9:50 PM 46.4 °F 40.1 °F 44.6 °F 93% 30.21 in 6.2 mi WNW 15.0 mph - N/A   Mostly Cloudy
10:20 PM 46.4 °F 39.5 °F 44.6 °F 93% 30.21 in 6.2 mi WNW 17.3 mph - N/A   Mostly Cloudy
10:50 PM 46.4 °F 39.5 °F 44.6 °F 93% 30.21 in 6.2 mi West 17.3 mph 28.8 mph N/A   Mostly Cloudy
11:20 PM 46.4 °F 39.8 °F 44.6 °F 93% 30.21 in 5.0 mi WNW 16.1 mph - N/A   Mostly Cloudy
11:50 PM 44.6 °F 38.4 °F 44.6 °F 100% 30.24 in 4.3 mi WNW 12.7 mph - N/A   Mostly Cloudy